[[{"header":{"parameterUnit":"m.s-1","parameterCategory":1,"la1":30.2992,"la2":30.254,"lo1":-89.0895,"lo2":-89.0443,"dy":0.0025,"dx":0.0025,"nx":19,"ny":19,"refTime":"2026-05-13T09:00:00:Z","depth":0,"parameterNumber":2,"parameterNumberName":"U-component_of_WINDS"},"data":[0,0,0,-1.9076,-1.9077,-1.9128,-1.9128,-1.9225,-1.9226,0,0,0,0,0,0,0,0,0,0,0,-1.9077,-1.9078,-1.9076,-1.9078,-1.9128,-1.9128,-1.9224,-1.9226,0,0,0,0,0,0,0,0,0,0,0,-1.9076,-1.9078,-1.9079,-1.9078,-1.9128,-1.9128,-1.9224,-1.9175,0,0,0,0,0,0,0,0,0,0,-1.9121,-1.9136,-1.9077,-1.9079,-1.9078,-1.9128,-1.9128,-1.9173,-1.9178,-1.9214,0,-1.9247,0,-1.9238,-1.9234,-1.9234,0,0,0,-1.9067,-1.9132,-1.9131,-1.9079,-1.9079,-1.9128,-1.9102,-1.9176,-1.9182,-1.9222,-1.9248,-1.9251,-1.9239,-1.9235,-1.9235,-1.947,-1.9472,0,0,-1.9064,-1.9095,-1.9126,-1.9136,-1.9126,-1.9101,-1.9104,-1.9179,-1.9211,-1.9248,-1.9253,-1.9241,-1.9235,-1.9236,-1.9469,-1.9471,0,0,0,-1.9063,-1.9094,-1.909,-1.9133,-1.9139,-1.9103,-1.9106,-1.9208,-1.9204,-1.9253,-1.9242,-1.9236,-1.9238,-1.9467,-1.9469,-1.958,0,0,0,-1.9061,-1.9093,-1.909,-1.911,-1.9138,-1.9173,-1.9134,-1.9198,-1.9206,-1.9242,-1.9236,-1.9239,-1.9465,-1.9468,-1.9573,-1.9628,0,0,0,-1.9068,-1.9094,-1.9106,-1.9111,-1.9134,-1.9171,-1.9171,-1.9199,-1.92,-1.9234,-1.9239,-1.9464,-1.9468,-1.9567,-1.9618,-1.97,0,0,0,-1.9086,-1.9205,-1.9109,-1.9237,-1.9134,-1.9238,-1.917,-1.9247,-1.929,-1.9237,-1.9465,-1.9469,-1.9565,-1.9611,-1.9694,-1.9777,-1.9813,0,0,-1.9254,-1.9226,-1.9299,-1.9215,-1.9344,-1.9228,-1.9374,-1.9385,-1.9361,-1.9436,-1.9441,-1.9575,-1.9617,-1.9699,-2.0005,-2.0034,0,0,0,-1.9363,-1.9417,-1.9444,-1.9485,-1.9494,-1.9507,-1.9491,-1.9495,-1.9557,-1.9404,-1.9625,-1.9649,-1.9696,-1.9734,-1.9759,-1.9799,-1.9487,-1.9487,-1.9487,-1.9649,-1.9609,-1.9728,-1.9695,-1.9735,-1.9717,-1.9748,-1.975,-1.97,-1.9753,-1.9776,-1.9966,-2.0012,-2.003,-2.0072,-1.9814,-1.9814,-1.9815,-1.9815,-1.9893,-1.9963,-1.9891,-1.9981,-1.9939,-2.0015,-2.0003,-1.9964,-2.0031,-1.9945,-1.9984,-1.9896,-2.0064,-2.0098,-1.9823,-1.9822,-1.9821,-1.982,-1.9819,-2.0077,-2.0104,-2.0105,-2.016,-2.0207,-2.017,-2.0237,-2.0196,-2.0159,-2.0198,-2.0219,-2.0217,-2.0212,-2.021,-2.0211,-2.0211,-2.0212,-2.0212,-2.0213,-2.0269,-2.0266,-2.0326,-2.0345,-2.0366,-2.039,-2.0372,-2.0393,-2.0406,-2.0372,-2.0372,-2.0318,-2.0086,-2.003,-2.0223,-2.0221,-2.022,-2.0219,-2.0218,-2.0536,-2.0468,-2.0561,-2.0583,-2.0602,-2.0654,-2.06,-2.0646,-2.0657,-2.0692,-2.0629,-2.0463,-2.0433,-2.0413,-2.0366,-2.0635,-2.0635,-2.0635,-2.0635,-2.0693,-2.0672,-2.0758,-2.0795,-2.0827,-2.0788,-2.0897,-2.0886,-2.0864,-2.0869,-2.0824,-2.0758,-2.0739,-2.072,-2.0693,-2.0649,-2.0984,-2.0985,-2.0985,-2.0856,-2.0836,-2.0936,-2.0911,-2.0923,-2.0936,-2.1039,-2.1087,-2.1047,-2.0998,-2.0873,-2.0858,-2.0751,-2.0718,-2.0669,-2.0628,-2.0546,0,0]},{"header":{"parameterUnit":"m.s-1","parameterCategory":1,"la1":30.2992,"la2":30.254,"lo1":-89.0895,"lo2":-89.0443,"dy":0.0025,"dx":0.0025,"nx":19,"ny":19,"refTime":"2026-05-13T09:00:00:Z","depth":0,"parameterNumber":3,"parameterNumberName":"V-component_of_WINDS"},"data":[0,0,0,-2.6229,-2.6232,-2.6349,-2.6349,-2.6494,-2.6495,0,0,0,0,0,0,0,0,0,0,0,-2.6191,-2.6192,-2.6229,-2.6232,-2.6349,-2.6349,-2.6493,-2.6495,0,0,0,0,0,0,0,0,0,0,0,-2.6191,-2.6192,-2.6193,-2.6232,-2.6349,-2.6349,-2.6493,-2.6407,0,0,0,0,0,0,0,0,0,0,-2.6294,-2.6256,-2.6192,-2.6193,-2.6233,-2.6349,-2.6349,-2.6403,-2.6412,-2.6438,0,-2.6461,0,-2.648,-2.6504,-2.6505,0,0,0,-2.6234,-2.6248,-2.6282,-2.6193,-2.6234,-2.6348,-2.6297,-2.6408,-2.6419,-2.6451,-2.6463,-2.6468,-2.6483,-2.6505,-2.6506,-2.6649,-2.665,0,0,-2.6228,-2.6211,-2.6275,-2.6289,-2.6271,-2.6293,-2.63,-2.6415,-2.6426,-2.6463,-2.6472,-2.6485,-2.6506,-2.6507,-2.6649,-2.665,0,0,0,-2.6208,-2.6206,-2.6238,-2.6283,-2.6305,-2.6296,-2.6305,-2.6421,-2.6433,-2.6474,-2.6487,-2.6507,-2.6509,-2.6648,-2.6649,-2.666,0,0,0,-2.6204,-2.6194,-2.6235,-2.6225,-2.6302,-2.6364,-2.6309,-2.6425,-2.6439,-2.6486,-2.6507,-2.651,-2.6648,-2.6649,-2.6658,-2.6667,0,0,0,-2.6185,-2.6192,-2.6208,-2.6224,-2.6274,-2.6363,-2.6382,-2.6429,-2.6447,-2.6505,-2.651,-2.6647,-2.6649,-2.6657,-2.6665,-2.6699,0,0,0,-2.6159,-2.6215,-2.6208,-2.6276,-2.6273,-2.6369,-2.6381,-2.6453,-2.6504,-2.6508,-2.6648,-2.6649,-2.6656,-2.6663,-2.6698,-2.6725,-2.6735,0,0,-2.622,-2.6222,-2.6264,-2.626,-2.6353,-2.6352,-2.6447,-2.651,-2.6531,-2.6609,-2.6613,-2.6658,-2.6665,-2.6699,-2.6798,-2.6805,0,0,0,-2.6277,-2.6306,-2.6335,-2.6383,-2.6432,-2.6476,-2.6526,-2.655,-2.6617,-2.6568,-2.6681,-2.6686,-2.6707,-2.672,-2.6727,-2.6746,-2.6655,-2.6655,-2.6655,-2.6337,-2.6362,-2.6432,-2.6471,-2.6518,-2.657,-2.661,-2.665,-2.6661,-2.6688,-2.6711,-2.6767,-2.6783,-2.6788,-2.6807,-2.6728,-2.6728,-2.6728,-2.6728,-2.6428,-2.6474,-2.6488,-2.6561,-2.6587,-2.6648,-2.6701,-2.6707,-2.6768,-2.6752,-2.6772,-2.6751,-2.6795,-2.6814,-2.6729,-2.6729,-2.6729,-2.6729,-2.6728,-2.647,-2.6496,-2.6524,-2.6596,-2.6649,-2.6687,-2.6745,-2.6767,-2.6788,-2.6808,-2.6834,-2.6834,-2.6836,-2.6819,-2.6819,-2.6819,-2.682,-2.682,-2.682,-2.6501,-2.6533,-2.6579,-2.6637,-2.6671,-2.6719,-2.6773,-2.6807,-2.685,-2.6861,-2.6862,-2.687,-2.6796,-2.6776,-2.6823,-2.6822,-2.6822,-2.6822,-2.6822,-2.6582,-2.6568,-2.6639,-2.6673,-2.6744,-2.6795,-2.6823,-2.689,-2.6922,-2.695,-2.6955,-2.6897,-2.69,-2.6895,-2.6878,-2.6949,-2.6949,-2.6949,-2.695,-2.6616,-2.6621,-2.6699,-2.6752,-2.6807,-2.6839,-2.6919,-2.6962,-2.7004,-2.7025,-2.7018,-2.6999,-2.6993,-2.7,-2.6992,-2.6978,-2.7072,-2.7072,-2.7073,-2.6667,-2.6678,-2.6741,-2.6783,-2.684,-2.6888,-2.6964,-2.7025,-2.707,-2.7078,-2.7042,-2.7037,-2.7006,-2.6995,-2.7001,-2.6989,-2.6962,0,0]}]]